Date,TemperatureHighF,TemperatureAvgF,TemperatureLowF,DewpointHighF,DewpointAvgF,DewpointLowF,HumidityHigh,HumidityAvg,HumidityLow,PressureMaxIn,PressureMinIn,WindSpeedMaxMPH,WindSpeedAvgMPH,GustSpeedMaxMPH,PrecipitationSumIn
2013-1-1,32,26,13,26,14,2,87,62,40,29.92,29.65,9,3,15,0.00
2013-1-2,22,12,5,8,1,-6,82,61,43,30.09,29.89,11,2,14,0.00
2013-1-3,25,13,5,7,1,-6,82,58,41,30.14,29.99,6,1,8,0.00
2013-1-4,34,22,6,26,16,2,88,77,68,29.98,29.76,6,1,9,0.00
2013-1-5,35,29,18,26,16,-100,82,62,44,30.31,29.77,11,-10,17,0.00
2013-1-6,36,25,16,25,19,10,88,79,64,30.28,29.95,3,0,6,0.02
2013-1-7,28,23,15,24,17,12,91,78,62,30.45,29.98,5,1,10,0.00
2013-1-8,43,30,15,28,23,12,95,76,51,30.40,30.22,6,2,13,0.05
2013-1-9,39,30,18,35,25,16,91,83,71,30.45,29.92,4,0,5,0.01
2013-1-10,44,39,30,33,27,23,85,62,49,30.56,29.94,12,5,21,0.01
2013-1-11,37,31,24,31,24,20,90,74,53,30.57,30.29,2,0,5,0.00
2013-1-12,42,38,34,40,36,-100,97,94,90,30.30,30.15,2,0,3,0.05
2013-1-13,45,41,39,45,41,38,98,97,97,30.20,29.98,4,1,11,0.02
2013-1-14,45,45,45,45,45,45,98,98,98,29.99,29.98,3,3,3,0.02
2013-1-15,39,35,30,28,25,22,85,67,55,30.36,30.26,3,0,6,0.00
2013-1-16,32,30,28,30,27,22,95,87,68,30.31,29.82,2,0,3,0.02
2013-1-17,40,28,17,34,20,1,94,74,38,30.18,29.81,6,1,9,0.32
2013-1-18,20,14,9,4,-2,-10,67,49,32,30.45,30.15,7,2,15,0.00
2013-1-19,39,31,16,31,20,3,81,64,57,30.40,29.90,6,2,15,0.01
2013-1-20,48,40,27,36,28,12,84,64,37,29.90,29.48,11,5,17,0.02
2013-1-21,28,22,15,17,6,-1,74,51,31,30.09,29.88,6,2,9,0.00
2013-1-22,19,15,9,13,5,-10,82,64,41,30.08,29.81,5,2,9,0.00
2013-1-23,8,4,1,-10,-14,-17,55,43,34,30.14,30.07,8,4,14,0.00
2013-1-24,13,6,0,-7,-12,-16,55,44,29,30.17,29.99,9,4,14,0.00
2013-1-25,20,12,5,3,-3,-8,68,51,33,30.25,30.12,7,2,12,0.00
2013-1-26,22,15,9,2,-2,-7,65,48,32,30.17,30.03,6,3,14,0.00
2013-1-27,26,17,11,3,0,-4,59,46,31,30.47,30.17,8,2,11,0.00
2013-1-28,27,20,10,21,7,-4,91,61,30,30.48,30.12,2,0,4,0.00
2013-1-29,33,27,20,30,23,17,91,86,76,30.26,30.12,2,0,4,0.09
2013-1-30,50,42,32,49,42,30,98,97,92,30.19,29.49,6,2,12,0.22
2013-1-31,55,46,31,54,37,14,98,73,43,29.49,28.89,15,9,31,0.18
2013-2-1,30,26,18,18,8,2,60,47,35,30.07,29.49,9,5,17,0.00
2013-2-2,26,21,14,14,6,1,66,53,45,30.25,30.07,5,2,9,0.00
2013-2-3,29,26,21,19,16,14,84,69,55,30.09,29.73,4,2,10,0.00
2013-2-4,30,24,18,15,8,-1,73,52,33,29.91,29.69,9,4,13,0.00
2013-2-5,26,18,8,10,2,-3,77,51,28,30.08,29.91,4,1,9,0.00
2013-2-6,36,25,16,25,12,-6,74,59,30,30.33,29.96,6,2,11,0.00
2013-2-7,23,16,10,-3,-6,-10,53,37,24,30.63,30.33,5,1,10,0.00
2013-2-8,16,13,10,14,6,-7,90,77,39,30.62,29.92,14,4,16,0.00
2013-2-9,19,14,11,16,11,8,91,87,68,30.07,29.73,13,9,26,0.00
2013-3-25,45,41,35,33,30,27,82,65,55,29.80,29.63,6,2,10,0.00
2013-3-26,51,41,33,28,26,22,74,55,36,29.77,29.61,5,3,15,0.00
2013-3-27,48,40,34,38,31,25,94,71,50,29.91,29.75,7,3,11,0.10
2013-3-28,51,43,36,36,34,31,93,74,46,30.01,29.91,5,2,8,0.00
2013-3-29,56,47,39,38,33,29,77,60,40,30.06,29.98,6,2,10,0.00
2013-3-30,56,44,34,34,28,17,86,58,22,30.13,30.02,5,2,11,0.00
2013-3-31,51,42,27,39,28,18,87,62,28,30.16,29.89,8,2,12,0.00
2013-4-1,52,43,35,44,39,26,96,86,70,29.89,29.53,8,3,14,0.54
2013-4-2,38,33,29,26,16,10,72,49,31,29.87,29.73,10,4,16,0.00
2013-4-3,43,36,30,20,14,9,66,43,25,30.09,29.85,10,5,16,0.00
2013-4-4,50,40,31,36,20,6,79,47,18,30.25,30.01,8,4,15,0.00
2013-4-5,54,45,38,36,30,23,78,58,33,30.01,29.68,7,3,12,0.00
2013-4-6,41,34,28,26,10,2,61,38,20,30.39,29.86,9,4,19,0.00
2013-4-7,46,38,27,40,28,15,86,67,44,30.39,30.00,11,4,20,0.00
2013-4-8,59,49,40,40,37,32,90,65,36,30.18,29.94,6,2,11,0.00
2013-4-9,48,44,40,44,41,35,95,89,78,30.17,29.94,3,0,5,0.25
2013-4-10,55,46,42,47,43,40,96,91,74,30.04,29.93,4,1,8,0.34
2013-4-11,53,46,40,44,29,16,96,57,25,30.23,29.90,6,2,10,0.05
2013-4-12,40,36,34,34,25,16,96,68,39,30.31,29.93,4,2,8,0.27
2013-4-13,48,40,33,40,36,32,96,87,68,29.96,29.83,4,1,7,0.14
2013-4-14,52,44,40,42,39,32,95,81,53,30.23,29.94,6,1,8,0.03
2013-4-15,54,44,34,40,36,31,90,76,50,30.47,30.23,6,2,11,0.00
2013-4-16,51,46,41,47,42,39,94,83,67,30.47,30.00,11,5,19,0.00
2013-4-17,61,54,44,49,34,25,93,50,28,30.39,30.00,7,3,17,0.00
2013-4-18,50,44,33,41,31,24,84,61,36,30.52,30.22,7,2,14,0.00
2013-4-19,64,53,47,57,50,41,97,90,77,30.21,29.68,10,5,15,0.00
2013-4-20,57,53,45,56,41,26,98,69,38,30.18,29.61,8,4,13,0.22
2013-4-21,52,44,36,28,22,16,58,44,24,30.75,30.19,7,2,15,0.00
2013-4-22,51,41,32,35,26,17,88,57,26,30.86,30.70,6,2,12,0.00
2013-4-23,45,39,31,41,36,29,95,88,77,30.70,30.24,5,1,11,0.02
2013-4-24,65,50,42,53,46,41,96,87,63,30.24,29.82,6,3,10,0.05
2013-4-25,64,54,47,49,37,28,95,58,27,30.33,29.83,9,3,14,0.03
2013-4-26,58,48,37,39,33,29,86,58,37,30.48,30.33,6,2,14,0.00
2013-4-27,61,48,37,42,39,34,91,71,42,30.47,30.36,5,1,10,0.00
2013-4-28,64,51,36,43,37,32,94,64,34,30.39,30.30,7,2,15,0.00
2013-4-29,62,50,38,47,41,34,93,72,39,30.33,30.27,6,2,11,0.00
2013-4-30,66,47,39,46,41,37,93,81,39,30.38,30.30,4,0,7,0.00
2013-5-17,67,59,51,46,41,36,77,53,36,30.25,29.93,5,2,13,0.00
2013-5-18,64,53,43,46,44,40,92,72,47,30.39,30.25,6,2,13,0.00
2013-5-19,66,54,47,51,48,45,96,82,55,30.42,30.28,5,1,7,0.06
2013-5-20,72,59,51,63,56,50,97,91,73,30.28,29.97,5,2,6,0.44
2013-5-21,57,52,49,55,50,48,96,94,90,30.17,30.00,3,1,6,0.31
2013-5-22,58,52,49,54,51,48,98,94,86,30.07,29.95,3,0,7,0.15
2013-5-23,61,56,49,59,53,-100,98,94,87,30.00,29.86,6,2,9,0.06
2013-5-24,61,58,50,61,56,-100,98,97,94,29.89,29.69,6,3,15,1.38
2013-5-25,52,49,46,51,48,45,97,95,90,29.87,29.70,7,3,13,0.42
2013-5-26,57,50,46,47,44,40,97,83,60,30.03,29.65,6,3,11,0.22
2013-5-27,69,56,42,44,38,33,85,56,27,30.21,30.03,6,2,16,0.00
2013-5-28,71,58,42,46,42,35,93,60,28,30.28,30.21,8,2,10,0.00
2013-5-29,56,53,48,55,52,46,98,95,87,30.25,30.05,4,1,10,0.13
2013-5-30,84,69,54,67,61,54,99,78,49,30.07,30.00,4,1,7,0.00
2013-5-31,89,75,60,70,64,58,95,71,47,30.09,29.93,5,2,10,0.00
2013-6-1,89,74,62,71,63,-100,93,71,54,29.95,29.85,7,-11,12,0.00
2013-6-2,78,71,64,68,64,61,95,81,67,29.86,29.73,9,2,11,0.13
2013-6-3,74,66,60,67,63,58,97,90,77,29.86,29.75,7,2,14,0.03
2013-6-4,67,61,53,56,46,42,92,60,42,30.10,29.81,7,2,12,0.00
2013-6-5,72,61,52,52,46,37,83,60,30,30.21,30.10,7,2,10,0.00
2013-6-6,72,61,51,55,49,42,91,68,36,30.26,30.19,4,1,8,0.00
2013-6-7,61,57,53,54,51,44,97,82,54,30.20,29.99,4,1,8,0.26
2013-6-8,71,60,54,61,56,53,97,88,69,30.02,29.68,7,2,11,0.53
2013-6-9,72,65,59,61,59,57,95,82,65,30.19,30.02,4,1,7,0.00
2013-6-10,71,62,54,58,55,52,95,81,59,30.27,30.10,5,1,10,0.00
2013-6-11,58,56,55,56,54,54,97,96,93,30.10,29.59,3,1,8,0.45
2013-6-12,62,58,55,58,56,54,97,92,83,29.81,29.56,5,2,12,0.10
2013-6-13,72,60,52,56,53,47,96,80,41,29.84,29.78,4,1,11,0.00
2013-6-14,78,63,55,59,55,52,95,77,43,29.79,29.70,4,1,11,0.00
2013-6-15,78,66,53,53,47,41,93,54,27,29.94,29.77,4,2,9,0.00
2013-6-16,76,64,53,58,53,48,87,69,46,29.94,29.75,6,1,7,0.00
2013-6-17,82,68,57,66,60,55,94,79,43,29.91,29.76,6,1,11,0.27
2013-6-18,68,63,59,61,56,50,94,79,54,30.03,29.89,2,0,9,0.01
2013-6-19,78,65,53,58,51,43,95,64,31,30.18,29.97,3,1,9,0.00
2013-6-20,76,64,49,58,52,45,92,66,34,30.30,30.18,5,2,9,0.00
2013-6-21,80,66,56,60,56,53,94,73,40,30.27,30.22,5,1,10,0.00
2013-6-22,83,69,60,68,63,58,96,82,53,30.24,30.15,4,1,6,0.03
2013-6-23,76,69,64,68,65,62,97,89,69,30.18,30.00,5,1,9,0.27
2013-6-24,93,79,66,74,69,65,97,75,47,30.00,29.85,4,1,10,0.00
2013-6-25,89,78,70,74,69,66,94,75,52,29.90,29.74,4,1,8,0.03
2013-6-26,80,69,60,72,66,58,96,90,75,29.93,29.73,5,1,11,0.22
2013-6-27,68,60,56,63,58,54,97,92,82,29.93,29.87,3,1,6,0.14
2013-6-28,67,61,57,66,60,57,98,98,97,29.88,29.58,4,1,12,0.50
2013-6-29,71,66,63,68,64,62,99,96,87,29.74,29.59,6,2,15,0.03
2013-6-30,81,70,63,72,66,62,98,89,71,29.97,29.73,5,2,8,0.00
2013-7-1,79,70,64,73,68,62,97,92,78,30.14,29.97,2,0,4,0.17
2013-7-2,68,63,60,68,62,59,98,97,96,30.27,30.12,2,1,8,0.07
2013-7-3,80,66,59,71,63,58,98,91,73,30.25,30.14,4,1,9,0.05
2013-7-4,90,78,66,76,71,64,96,80,61,30.20,30.08,5,1,8,0.00
2013-7-5,92,81,70,76,72,68,95,76,53,30.15,30.02,6,1,10,0.00
2013-7-6,91,81,73,74,71,64,94,74,54,30.06,29.95,2,0,5,0.00
2013-7-7,89,80,69,73,68,63,82,67,50,30.01,29.93,3,1,7,0.00
2013-7-8,77,73,69,71,67,63,96,84,69,30.12,29.93,2,0,8,0.21
2013-7-9,72,67,63,67,64,61,95,90,83,30.17,30.11,2,0,5,0.03
2013-7-10,70,65,61,68,63,60,98,94,83,30.14,29.82,3,1,6,0.04
2013-7-11,83,73,68,73,69,67,98,90,61,30.00,29.78,3,0,6,0.01
2013-7-12,83,72,65,68,61,58,91,69,46,30.26,30.00,3,1,10,0.00
2013-7-13,82,71,59,66,61,58,95,74,49,30.36,30.26,4,1,7,0.00
2013-7-14,90,77,64,72,67,63,95,74,53,30.33,30.22,4,1,10,0.00
2013-7-15,95,80,67,72,68,64,96,71,43,30.22,30.09,3,1,6,0.00
2013-7-16,93,82,73,73,70,67,84,67,47,30.20,30.12,4,1,8,0.00
2013-7-17,84,76,68,73,69,66,96,80,64,30.22,29.98,7,2,12,0.45
2013-7-18,87,77,72,73,70,64,97,81,54,30.05,29.96,5,1,10,0.02
2013-7-19,95,81,71,77,73,69,95,78,54,29.99,29.67,5,2,13,0.00
2013-7-20,91,82,75,74,70,63,83,67,46,29.82,29.64,7,2,12,0.00
2013-7-21,77,71,64,64,60,56,90,69,48,30.07,29.82,5,1,10,0.00
2013-7-22,75,68,62,66,62,58,95,81,61,30.09,29.97,3,1,6,0.00
2013-7-23,69,66,63,68,64,60,97,95,90,29.97,29.58,2,0,5,0.68
2013-7-24,83,71,61,72,64,52,98,80,57,30.02,29.61,4,1,9,0.01
2013-7-25,75,64,56,62,56,50,95,75,56,30.16,30.02,3,1,8,0.09
2013-7-26,70,66,62,66,63,61,96,91,83,30.13,29.93,5,2,11,0.09
2013-7-27,82,72,64,68,64,62,95,77,57,30.08,29.96,5,1,8,0.00
2013-7-28,74,67,62,68,64,60,97,91,79,30.09,30.05,3,0,7,0.00
2013-7-29,76,68,63,68,65,62,97,92,76,30.12,30.04,4,1,8,0.37
2013-7-30,82,71,61,66,61,53,98,74,39,30.11,30.04,3,1,9,0.01
2013-7-31,80,70,59,62,59,56,89,70,45,30.16,30.08,6,2,10,0.00
2013-8-1,78,69,59,68,63,58,96,83,65,30.09,29.93,6,2,12,0.00
2013-8-2,78,68,63,68,65,62,97,91,70,29.92,29.79,4,1,7,0.61
2013-8-3,78,68,61,65,62,59,97,83,57,29.87,29.76,5,1,9,0.04
2013-8-4,79,67,58,63,58,55,93,76,45,29.88,29.78,5,1,10,0.04
2013-8-5,75,65,56,55,52,47,89,65,44,30.07,29.87,5,1,13,0.00
2013-8-6,77,65,52,58,53,47,90,67,43,30.20,30.07,6,1,10,0.00
2013-8-7,76,66,53,64,59,51,95,80,42,30.24,30.16,5,2,9,0.00
2013-8-8,76,68,62,70,64,60,96,89,79,30.17,30.05,4,2,8,0.22
2013-8-9,70,68,67,70,67,65,98,96,93,30.06,29.77,8,3,16,0.81
2013-8-10,82,72,63,69,60,49,98,68,35,30.03,29.78,4,1,9,0.01
2013-8-11,79,66,54,58,55,51,89,68,42,30.09,30.01,5,1,8,0.00
2013-8-12,80,68,58,62,59,56,94,74,46,30.04,29.94,6,1,9,0.00
2013-8-13,73,67,59,67,62,57,96,87,63,29.95,29.74,5,1,9,0.00
2013-8-14,77,68,60,67,60,51,97,77,43,29.92,29.65,6,2,9,0.00
2013-8-15,78,66,55,59,53,50,90,66,43,30.12,29.93,3,1,6,0.00
2013-8-16,77,66,55,60,57,52,95,75,42,30.22,30.11,5,1,9,0.00
2013-8-17,80,67,55,62,57,54,95,72,45,30.31,30.22,5,1,9,0.00
2013-8-18,78,66,56,63,58,54,94,78,49,30.32,30.09,4,1,5,0.00
2013-8-19,85,73,59,65,62,57,95,71,46,30.09,29.92,4,1,7,0.00
2013-8-20,85,74,63,67,63,61,93,72,50,30.11,29.98,6,1,10,0.00
2013-8-21,86,74,63,68,64,61,95,75,49,30.16,30.02,5,1,12,0.00
2013-8-22,86,74,63,69,66,61,93,77,54,30.03,29.79,6,2,10,0.00
2013-8-23,80,72,61,68,57,49,87,61,35,30.18,29.80,5,2,13,0.00
2013-8-24,80,66,53,56,51,46,87,63,31,30.35,30.19,3,1,6,0.00
2013-8-25,80,66,52,61,56,50,93,73,38,30.40,30.18,5,1,9,0.00
2013-8-26,78,69,62,68,64,59,95,85,69,30.18,29.90,3,1,5,0.16
2013-8-27,85,73,64,70,66,62,96,81,59,29.94,29.88,4,1,7,0.00
2013-8-28,81,71,65,70,66,63,96,85,65,30.04,29.92,4,1,7,0.07
2013-8-29,70,66,61,66,62,58,96,87,77,30.15,30.02,3,1,8,0.00
2013-8-30,78,68,59,67,62,57,95,84,68,30.07,29.81,5,1,9,0.00
2013-8-31,84,72,67,71,68,64,95,86,63,29.86,29.80,5,1,6,0.00
2013-9-1,83,74,69,74,70,67,97,87,69,29.95,29.80,4,1,9,0.01
2013-9-2,71,67,63,69,66,62,98,97,91,29.95,29.78,4,1,7,1.50
2013-9-3,77,70,67,70,68,65,98,92,76,29.81,29.74,5,1,9,0.12
2013-9-4,82,70,60,65,60,55,96,74,43,29.93,29.78,4,1,6,0.00
2013-9-5,68,62,53,60,52,45,95,74,47,30.18,29.89,3,0,7,0.23
2013-9-6,68,58,47,54,46,37,90,68,35,30.26,30.08,6,1,12,0.00
2013-9-7,75,63,51,60,54,48,92,74,56,30.08,29.83,4,1,8,0.00
2013-9-8,67,61,51,60,50,41,95,71,43,30.11,29.75,5,1,17,0.15
2013-9-9,66,57,46,56,47,41,88,71,48,30.25,30.11,6,2,10,0.00
2013-9-10,66,62,56,63,58,52,95,87,76,30.16,30.07,4,1,8,0.00
2013-9-11,89,73,63,75,68,62,97,85,64,30.08,29.93,7,1,10,0.51
2013-9-12,77,68,65,70,67,64,98,95,79,30.02,29.69,5,1,8,1.08
2013-9-13,69,65,59,68,64,57,98,97,93,29.75,29.63,4,0,9,1.31
2013-9-14,71,62,55,59,55,51,96,81,58,30.06,29.75,2,1,5,0.00
2013-9-15,66,58,47,56,51,46,95,80,56,30.17,30.04,6,1,10,0.01
2013-9-16,67,57,45,58,52,38,93,82,64,30.30,30.00,3,1,9,0.02
2013-9-17,67,53,41,51,42,37,89,69,42,30.45,30.31,3,1,8,0.00
2013-9-18,72,56,44,51,46,41,95,73,39,30.34,30.14,4,1,8,0.00
2013-9-19,74,60,46,55,50,45,96,74,41,30.17,30.07,4,1,7,0.00
2013-9-20,76,61,47,57,53,46,97,78,47,30.15,30.07,3,1,7,0.01
2013-9-21,66,61,56,62,58,55,98,93,85,30.08,29.81,7,3,16,0.01
2013-9-22,71,64,53,64,59,47,97,84,55,29.81,29.62,8,3,15,0.68
2013-9-23,58,52,47,47,43,41,85,70,56,30.00,29.80,5,2,12,0.00
2013-9-24,58,52,48,45,43,40,86,72,62,29.98,29.88,4,1,10,0.00
2013-9-25,64,55,47,51,47,43,88,73,57,30.02,29.91,3,1,9,0.00
2013-9-26,67,57,48,53,49,44,88,75,59,30.17,30.02,4,1,11,0.00
2013-9-27,58,56,56,52,51,51,84,82,80,30.25,30.17,1,0,5,0.00
2013-10-3,75,63,54,55,49,-100,92,68,42,30.08,30.01,2,1,4,0.00
2013-10-4,71,59,48,55,48,-100,94,76,48,30.12,30.05,3,0,5,0.00
2013-10-5,63,57,50,52,45,-100,94,70,53,30.17,30.10,4,1,5,0.00
2013-10-6,56,52,49,50,44,-100,96,78,53,30.31,30.17,4,1,6,0.10
2013-10-7,66,58,50,65,54,-100,98,96,94,30.24,29.82,6,2,18,0.32
2013-10-8,63,55,43,61,44,-100,96,73,44,30.42,29.85,8,2,15,0.00
2013-10-9,62,48,39,45,38,-100,95,79,47,30.52,30.40,4,0,8,0.01
2013-10-10,64,49,38,51,42,-100,97,83,48,30.40,30.22,2,0,4,0.00
2013-10-11,70,55,45,57,45,-100,97,81,50,30.22,30.15,2,0,6,0.00
2013-10-12,59,53,50,53,44,-100,96,86,72,30.45,30.20,4,1,8,0.00
2013-10-13,58,52,43,50,45,-100,94,84,68,30.50,30.42,2,0,4,0.00
2013-10-14,61,49,40,52,41,-100,97,83,61,30.42,30.28,3,1,8,0.01
2013-10-15,67,58,52,55,50,-100,94,82,63,30.32,30.24,4,0,6,0.00
2013-10-16,62,57,54,56,52,-100,95,87,69,30.24,29.92,3,1,6,0.00
2013-10-17,70,58,54,59,48,-100,96,86,68,29.92,29.74,2,1,5,0.00
2013-10-18,69,58,52,57,47,-100,98,78,46,29.85,29.60,10,3,14,0.31
2013-10-19,64,53,44,52,42,-100,87,74,52,29.96,29.78,3,1,8,0.00
2013-10-20,63,55,44,53,40,-100,93,66,36,29.98,29.68,12,3,18,0.01
2013-10-21,62,50,37,51,40,-100,94,76,42,30.11,29.98,7,1,9,0.00
2013-10-22,61,54,44,55,46,-100,95,85,74,30.00,29.72,5,2,10,0.04
2013-10-23,54,44,37,43,34,-100,97,80,54,29.79,29.61,3,0,6,0.01
2013-10-24,52,44,35,40,29,-100,91,65,39,29.85,29.62,12,3,17,0.00
2013-10-25,50,40,32,36,26,-100,93,69,47,30.12,29.85,10,3,15,0.00
2013-10-26,51,41,28,39,28,-100,93,69,49,30.13,29.89,6,2,10,0.00
2013-10-27,56,47,36,42,36,-100,94,69,47,30.04,29.80,9,3,15,0.04
2013-10-28,56,41,31,39,26,-100,90,67,47,30.38,30.03,11,3,19,0.00
2013-10-29,50,36,26,30,25,-100,92,71,31,30.48,30.37,4,1,5,0.00
2013-10-30,51,36,28,32,26,-100,92,74,37,30.38,30.19,7,1,9,0.00
2013-10-31,56,42,29,55,37,-100,98,90,81,30.28,29.80,5,1,9,0.28
2013-11-1,66,58,55,60,54,-100,98,91,77,29.80,29.38,10,4,15,0.20
2013-11-2,66,52,40,50,40,-100,97,75,47,29.79,29.59,6,1,9,0.01
2013-11-3,46,39,32,41,24,-100,85,62,42,30.44,29.79,8,4,15,0.01
2013-11-4,44,33,28,25,18,-100,86,62,37,30.74,30.45,5,2,11,0.00
2013-11-5,47,35,25,35,27,-100,93,79,58,30.75,30.52,5,1,11,0.00
2013-11-6,54,45,35,50,38,-100,93,85,74,30.53,30.01,7,2,9,0.00
2013-11-7,58,52,40,56,46,-100,95,86,61,30.00,29.65,7,3,11,0.03
2013-11-8,47,40,33,29,24,-100,75,57,42,30.01,29.79,10,5,15,0.00
2013-11-9,46,38,34,30,19,-100,79,55,39,30.15,30.01,10,4,16,0.00
2013-11-10,44,38,35,40,33,-100,96,88,76,30.09,29.74,3,1,5,0.01
2013-11-11,48,40,36,36,29,-100,95,70,52,30.05,29.77,11,3,15,0.00
2013-11-12,45,34,29,33,19,-100,75,58,50,30.13,29.85,11,5,17,0.00
2013-11-13,36,29,24,17,13,-100,70,54,42,30.26,30.11,8,4,14,0.00
2013-11-14,50,36,28,31,21,-100,90,62,40,30.11,30.00,4,1,7,0.00
2013-11-15,52,37,27,36,26,-100,93,75,36,30.20,30.10,4,1,6,0.00
2013-11-16,54,39,32,37,28,-100,96,78,49,30.37,30.19,3,0,5,0.00
2013-11-17,54,46,37,53,42,-100,97,90,74,30.38,29.94,4,1,8,0.17
2013-11-18,64,55,46,57,47,-100,98,81,50,29.93,29.50,12,4,16,0.36
2013-11-19,48,38,32,37,21,-100,72,55,44,30.23,29.59,13,6,25,0.00
2013-11-20,42,32,25,21,14,-100,82,53,32,30.65,30.24,7,2,11,0.00
2013-11-21,45,32,22,28,18,-100,86,66,34,30.66,30.36,3,1,6,0.00
2013-11-22,39,35,31,36,29,-100,95,82,60,30.35,29.80,2,0,3,0.02
2013-11-23,42,36,27,38,24,-100,96,67,37,29.84,29.70,16,5,24,0.00
2013-11-24,27,23,20,25,8,-100,91,55,43,30.03,29.70,18,11,43,0.00
2013-11-25,32,23,18,16,2,-100,56,45,29,30.34,30.04,15,5,25,0.00
2013-11-26,34,31,27,31,22,-100,94,79,52,30.34,30.18,5,2,8,0.05
2013-11-27,58,48,32,58,47,31,98,97,93,30.18,29.17,9,4,15,1.98
2013-11-28,40,31,22,38,18,-100,94,62,41,30.42,29.31,14,5,23,0.00
2013-11-29,28,22,18,12,9,-100,77,60,39,30.76,30.42,7,2,13,0.00
2013-11-30,29,22,14,22,14,-100,83,72,38,30.84,30.45,4,1,8,0.00
2013-12-1,34,32,28,34,27,-100,96,88,73,30.44,30.09,4,1,6,0.43
2013-12-2,38,35,34,37,34,-100,97,97,96,30.09,29.95,5,2,9,0.42
2013-12-3,44,36,33,40,33,-100,98,93,84,29.95,29.87,4,1,8,0.02
2013-12-4,42,34,27,30,26,-100,93,78,60,30.25,29.90,9,2,15,0.00
2013-12-5,38,32,26,37,27,-100,97,93,91,30.29,29.93,3,0,5,0.04
2013-12-6,45,40,36,43,34,-100,98,90,66,30.14,29.87,5,0,8,0.15
2013-12-7,38,35,33,31,28,-100,92,79,55,30.21,30.09,5,1,14,0.00
2013-12-9,34,26,24,33,19,-100,95,89,65,30.36,29.85,4,2,6,0.00
2013-12-10,33,27,21,32,23,-100,95,92,85,29.93,29.75,3,0,5,0.01
2013-12-11,30,22,14,22,13,-100,91,80,62,30.15,29.93,7,2,13,0.00
2013-12-12,21,14,8,17,4,-100,86,68,43,30.27,30.02,8,2,16,0.00
2013-12-13,25,15,6,14,2,-100,77,63,50,30.41,29.93,6,3,11,0.00
2013-12-14,14,8,2,8,-6,-100,87,59,42,30.66,30.41,6,2,11,0.00
2013-12-15,18,13,10,16,5,-100,91,88,87,30.41,29.44,11,5,18,0.00
2013-12-16,24,15,5,17,6,-100,94,71,44,30.23,29.68,14,4,22,0.00
2013-12-17,14,6,-7,9,-2,-100,89,73,54,30.34,30.06,5,1,8,0.00
2013-12-18,30,19,12,23,11,-100,92,84,73,30.06,29.87,6,2,10,0.03
2013-12-19,32,24,12,26,19,-100,93,85,76,30.11,29.94,4,1,6,0.00
2013-12-20,38,30,20,34,27,-100,94,90,84,30.15,29.92,2,0,3,0.16
2013-12-21,36,33,31,34,29,-100,96,94,92,29.98,29.85,3,1,6,0.22
2013-12-22,33,29,27,32,27,-100,96,95,94,30.12,29.90,6,3,11,0.29
2013-12-23,33,31,27,32,29,-100,97,96,95,30.14,29.99,3,1,5,0.01
2013-12-24,33,25,-90,32,19,-100,97,88,85,30.20,30.08,4,1,6,0.00
2013-12-25,20,12,-90,15,7,-100,90,83,78,30.58,30.21,6,2,10,0.00
2013-12-26,25,18,11,24,16,-100,94,92,89,30.54,30.10,3,1,6,0.00
2013-12-27,33,21,8,30,15,-100,94,89,84,30.23,30.15,6,1,7,0.00
2013-12-28,36,26,15,32,22,-100,95,90,85,30.19,29.97,6,1,10,0.00
2013-12-29,34,26,18,33,25,-100,97,94,92,30.05,29.56,4,1,9,0.00
2013-12-30,33,21,6,30,18,1,95,86,71,30.21,29.55,8,2,14,0.00
2013-12-31,11,4,-2,6,0,-100,88,82,68,30.21,30.07,4,1,6,0.00
2014-1-1,22,6,-8,13,0,-100,92,81,59,30.44,30.15,7,1,11,0.00
2014-1-2,8,-1,-6,3,-6,-100,89,81,74,30.48,30.03,9,6,16,0.00